Location: *
(10.2560°S, 113.2161°E)
Time: 13:32:55
(UTC+00:00)

Daily predictions for brighter satellites

Satellite Brightness Start Highest point End
(mag) Time Altitude Azimuth Time Altitude Azimuth Time Altitude Azimuth
CBERS 1 LM4 rocket 4.3 12:05:47 66° S 12:06:27 85° WSW 12:11:18 10° NNW
Ariane 3 Deb 3.6 12:05:11 10° WNW 12:07:14 32° NW 12:07:14 32° NW
Sich 1 4.3 12:05:59 10° S 12:08:19 32° SSW 12:08:19 32° SSW
USA 215 3.8 12:07:02 17° NNE 12:12:07 56° NW 12:18:31 10° SW
ATLAS 3B R/B 3.5 12:18:52 10° NW 12:25:57 51° WSW 12:31:40 14° S
Milstar 3 Cent rocket 4.4 12:19:42 10° SW 12:26:27 34° SSE 12:27:11 33° SE
DELTA 2 R/B (1) 4.4 12:28:29 10° SW 12:32:28 47° WSW 12:32:28 47° WSW
Hubble Space Telescope 3.8 12:37:20 10° WNW 12:37:31 11° WNW 12:37:31 11° WNW
ATLAS CENTAUR R/B 4.1 12:37:46 10° NW 12:46:38 74° WSW 12:50:43 44° SSE
USA 229 DEB 4.3 12:44:44 10° NNW 12:51:52 67° NW 12:51:52 67° NW
USA 229 4.3 12:45:01 10° NNW 12:51:56 65° NW 12:51:56 65° NW
USA 234 4.2 13:00:21 42° WNW 13:00:21 42° WNW 13:04:34 10° NW
Milstar 3 4.4 19:30:05 65° SSW 19:32:27 74° SSE 19:56:17 10° ENE
Cosmos 2322 Rocket 4.3 19:39:31 22° E 19:39:31 22° E 19:43:35 10° SE
SL-16 R/B 3.8 20:07:42 25° SSE 20:07:42 25° SSE 20:09:57 10° SSE
Cosmos 2333 Rocket 3.8 20:04:50 16° NNE 20:08:31 32° ENE 20:13:28 10° SE
Cosmos 1934 Rocket 4.2 20:12:24 46° NNE 20:14:23 71° E 20:20:41 10° S
Cosmos 1727 Rocket 3.9 20:17:19 10° S 20:23:39 86° E 20:29:53 10° N
Sakura Rocket 4.3 20:28:17 33° NE 20:28:17 33° NE 20:30:58 10° ENE
Centaur AC-102 3.1 20:27:32 81° SSE 20:27:32 81° SSE 20:34:16 10° ENE
ATLAS 2A CENTAUR R/B 3.9 20:29:51 19° NE 20:29:51 19° NE 20:31:26 10° ENE
Cosmos 1238 Rocket 3.8 20:25:42 10° S 20:30:28 63° E 20:35:49 10° NNE
Cosmos 2263 Rocket 3.6 20:28:25 10° S 20:33:30 36° ESE 20:38:33 10° NE
OAO 1 4.4 20:36:25 75° NNW 20:36:49 81° NE 20:42:19 10° ESE
Cosmos 1933 4.1 20:37:50 46° NE 20:37:50 46° NE 20:40:57 10° NNE
Cosmos 2227 Rocket 2.8 20:48:00 38° NNW 20:48:00 38° NNW 20:51:49 10° N
Cosmos 540 Rocket 3.3 20:43:55 29° NNW 20:46:35 90° ENE 20:51:46 10° SSE
ASTRO E2 4.4 20:48:01 19° NNE 20:48:12 19° NE 20:50:35 10° E
Meteor 2-2 Rocket 4.2 20:48:46 10° S 20:54:37 90° ESE 21:00:33 10° N
SL-08 RB Rocket 3.9 20:50:47 10° NNE 20:55:10 70° ESE 20:59:38 10° S
Cosmos 1825 Rocket 3.5 21:01:07 26° NNW 21:03:21 56° W 21:07:37 10° S
Cosmos 304 Rocket 3.6 20:59:01 10° SSW 21:03:47 68° WNW 21:08:31 10° N
Cosmos 468 Rocket 3.9 20:58:34 10° NNW 21:03:48 71° WSW 21:09:07 10° S
GP-B 2.9 21:00:10 10° S 21:04:35 73° W 21:08:57 10° N
Cosmos 371 Rocket 3.3 21:02:17 25° SW 21:04:57 53° WNW 21:09:38 10° N
ARGOS 3.1 21:01:20 10° N 21:06:35 56° WNW 21:11:53 10° SSW
Hubble Space Telescope 1.8 21:05:37 25° SSW 21:07:16 38° SSE 21:10:57 10° E
SL-16 R/B 4.2 21:02:54 10° SSW 21:04:30 15° SW 21:04:30 15° SW
USA 281 3.9 21:02:02 10° S 21:07:30 28° WSW 21:08:09 28° WSW
DMSP B5D2-2 4.2 21:02:42 10° S 21:07:42 48° WSW 21:12:40 10° NNW
Cosmos 1605 Rocket 3.9 21:02:53 10° NNW 21:08:54 64° W 21:14:57 10° S
Cosmos 2360 Rocket 2.3 21:05:11 18° NW 21:09:14 51° WSW 21:14:42 10° S
Ariane H10 4.5 21:07:30 22° NW 21:10:24 39° N 21:30:09 10° ENE
Cosmos 1763 Rocket 4.2 21:12:26 30° W 21:12:41 30° WSW 21:17:18 10° SSW
IRS-1C 4.5 21:08:43 10° NNE 21:13:59 67° ESE 21:19:17 10° S
ARIANE 5 R/B 2.9 21:10:39 10° NNE 21:15:35 65° ESE 21:20:32 10° S
SL-12 R/B(2) 4.1 21:11:17 10° SW 21:18:19 48° WNW 21:25:27 10° N
Cosmos-2242 3.8 21:19:47 28° WNW 21:19:47 28° WNW 21:22:58 10° NNW
GPS 2-12 Rocket1 3.6 21:17:12 21° NW 21:20:03 53° NNE 21:24:38 10° E
Cosmos 1503 Rocket 4.3 21:17:44 10° S 21:22:52 67° ESE 21:27:58 10° NNE
Cosmos 2322 Rocket 3.1 21:21:27 23° W 21:23:05 26° WSW 21:27:43 10° SSW
Cosmos 2219 Rocket 2.1 21:19:45 10° NNW 21:25:19 82° WSW 21:30:55 10° SSE
Meteor 1-26 Rocket 4.2 21:21:51 10° SSW 21:27:30 68° W 21:33:17 10° N
Centaur AC-69 2.1 21:26:58 32° W 21:27:51 69° NNW 21:31:41 10° ENE
Meteor 2-19 Rocket 4.5 21:23:51 10° SSW 21:29:50 56° W 21:35:46 10° N
Cosmos 2151 3.5 21:26:37 10° NNW 21:30:24 34° W 21:34:15 10° SSW
OAO 3 Rocket 3.8 21:28:33 21° W 21:31:01 36° SSW 21:35:22 10° SE
Cosmos 1486 Rocket 4.2 21:28:05 10° SSW 21:33:11 48° W 21:38:17 10° N
SJ-12 4.0 21:33:07 10° NNE 21:37:01 77° ESE 21:40:58 10° S
deb Ariane 3.9 21:35:56 15° WNW 21:38:08 41° N 21:44:28 10° ENE
Cosmos 2219 3.9 21:33:53 10° SW 21:38:46 31° WNW 21:43:39 10° NNW
Centaur AC-125 1.9 21:45:38 14° W 21:47:28 52° SSW 21:51:17 10° ESE
BREEZE-M DEB (TANK) 3.2 21:43:12 10° NW 21:47:34 53° SW 21:51:23 10° SSE
Cosmos 2082 4.1 21:43:18 10° SW 21:48:32 41° WNW 21:53:45 10° N
H-2A R/B 3.5 21:47:58 10° NNW 21:50:07 19° W 21:52:18 10° SW
Cosmos 2333 Rocket 3.5 21:48:47 10° WNW 21:52:35 18° WSW 21:56:23 10° SSW
Meteor 1-20 Rocket 4.3 21:47:44 10° NNW 21:53:29 66° W 21:59:11 10° S
